星链-5837 (STARLINK-5837 )

导读

STARLINK-5837是美国太空探索技术公司星链卫星互联网项目的卫星,于2023年4月27日发射升空,属于星链组网星座的组成部分,主要承担提供全球范围高速互联网接入服务的任务,是星链低轨卫星星座部署进程中的一环,服务于通信覆盖、网络互联等应用场景。

Basic Information
目录编号:
56346
目录名称:
STARLINK-5837
国际标识:
2023-058AF
轨道中心:
EARTH
卫星名称:
星链-5837
卫星全名:
星链-5837 (STARLINK-5837 )
卫星状态:
在轨 (已飞行1227 天)
发射日期:
2023-04-27 UTC
国别 :
美国 (US)
星等 :
--
Orbit Information
数据来源 国际轨道数据
星历时间: 2026-09-05T19:58:22+0800
9小时前
查看轨道信息
半长轴: 6927.64km
偏心率: 0.0002202
轨道倾角: 97.283°
近地点辐角 82.146°
升交点赤经 243.184°
平近点角 278.002°
近地点: 547.977km
远地点: 551.029km
周期: 95.640分钟
每日圈数: 15.056527
Detailed Information
固有亮度:
5
最大亮度:
2.5
卫星平台:
Starlink v1.5
覆盖范围:
全球
运营商:
太空探索技术公司
运营商所在国:
美国
制造商(研发单位):
太空探索技术公司
制造商所在国:
美国
使用方式:
暂无
Satellite Introduction
星链(Starlink)计划是由太空探索技术公司(SpaceX)提出的一个巨型低轨卫星互联网星座项目,计划在2019年至2024年间在太空搭建由约1.2万颗卫星组成的“星链”网络,其中1584颗将部署在地球上空550千米处的近地轨道,并从2020年开始工作。该卫星仍在工作。
2D Orbit Map
3D Orbit Map
Orbit Altitude Analysis Chart
Orbit Inclination Analysis Chart
Orbit Comprehensive Analysis Chart
View Comprehensive Chart
Conjunction Data List
Event ID Objects TCA Miss Dist (km) Collision Risk Probability Collision Risk Index (CRI) Action
CDM_260903-021404-071905-634626
2026-09-03T
02:14:21+0000
1.645 km
极远距离
4.826984E-6 低风险 0.49